Radiation Dose at Monitoring Post of Fukushima Daini Nuclear Power Station
Date,Time,MP-1(microSv/h),MP-2(microSv/h),MP-3(microSv/h),MP-4(microSv/h),MP-5(microSv/h),MP-6(microSv/h),MP-7(microSv/h),Wind Direction,Wind Velocity(m/s),Rain
2019/11/18,00:00,0.190,0.166,0.283,0.265,0.265,0.145,0.089,south,1.6,No
2019/11/18,00:10,0.190,0.167,0.283,0.265,0.264,0.144,0.089,south-southwest,2.2,No
2019/11/18,00:20,0.190,0.165,0.283,0.265,0.263,0.145,0.088,south,2.1,No
2019/11/18,00:30,0.189,0.166,0.283,0.265,0.265,0.145,0.088,south,2.5,No
2019/11/18,00:40,0.190,0.166,0.282,0.264,0.264,0.144,0.088,south-southwest,3.1,No
2019/11/18,00:50,0.191,0.167,0.284,0.265,0.264,0.145,0.088,south-southwest,2.9,No
2019/11/18,01:00,0.190,0.167,0.283,0.265,0.264,0.145,0.088,south,2.9,No
2019/11/18,01:10,0.189,0.167,0.283,0.264,0.264,0.144,0.089,south-southwest,3.2,No
2019/11/18,01:20,0.189,0.166,0.283,0.265,0.263,0.145,0.088,south-southwest,3.0,No
2019/11/18,01:30,0.190,0.167,0.283,0.265,0.264,0.144,0.089,south-southwest,3.6,No
2019/11/18,01:40,0.189,0.166,0.282,0.266,0.264,0.144,0.090,south-southwest,3.6,No
2019/11/18,01:50,0.190,0.165,0.283,0.265,0.263,0.145,0.089,south,3.5,No
2019/11/18,02:00,0.189,0.166,0.281,0.265,0.264,0.145,0.089,south-southwest,4.3,No
2019/11/18,02:10,0.189,0.166,0.282,0.264,0.265,0.144,0.089,south-southwest,3.7,No
2019/11/18,02:20,0.190,0.166,0.282,0.266,0.263,0.145,0.088,south,4.3,No
2019/11/18,02:30,0.190,0.165,0.283,0.264,0.263,0.145,0.088,south,4.9,No
2019/11/18,02:40,0.189,0.166,0.282,0.265,0.265,0.145,0.089,south,5.3,No
2019/11/18,02:50,0.190,0.166,0.282,0.266,0.264,0.144,0.088,south,5.0,No
2019/11/18,03:00,0.190,0.167,0.283,0.266,0.263,0.144,0.088,south,4.8,No
2019/11/18,03:10,0.189,0.165,0.282,0.265,0.264,0.144,0.088,south,5.2,No
2019/11/18,03:20,0.189,0.165,0.283,0.265,0.264,0.145,0.088,south,5.3,No
2019/11/18,03:30,0.190,0.167,0.283,0.266,0.263,0.146,0.089,south,5.5,No
2019/11/18,03:40,0.190,0.165,0.281,0.266,0.263,0.145,0.089,south,4.9,No
2019/11/18,03:50,0.189,0.167,0.283,0.264,0.263,0.145,0.088,south,4.7,No
2019/11/18,04:00,0.190,0.167,0.282,0.265,0.264,0.145,0.089,south,4.9,No
2019/11/18,04:10,0.190,0.166,0.282,0.266,0.263,0.144,0.089,south,6.4,No
2019/11/18,04:20,0.190,0.165,0.285,0.264,0.264,0.145,0.089,south,5.8,No
2019/11/18,04:30,0.190,0.167,0.283,0.264,0.263,0.145,0.088,south,6.5,No
2019/11/18,04:40,0.189,0.167,0.282,0.266,0.262,0.145,0.089,south,6.8,No
2019/11/18,04:50,0.190,0.165,0.283,0.265,0.264,0.145,0.089,south,7.3,No
2019/11/18,05:00,0.190,0.166,0.283,0.265,0.265,0.144,0.088,south,7.3,No
2019/11/18,05:10,0.189,0.166,0.282,0.264,0.264,0.144,0.089,south,7.3,No
2019/11/18,05:20,0.190,0.166,0.282,0.265,0.263,0.144,0.088,south,7.3,No
2019/11/18,05:30,0.189,0.166,0.283,0.264,0.265,0.145,0.089,south,6.9,No
2019/11/18,05:40,0.190,0.166,0.283,0.263,0.263,0.146,0.089,south,6.7,No
2019/11/18,05:50,0.190,0.167,0.283,0.266,0.263,0.145,0.088,south,7.1,No
2019/11/18,06:00,0.190,0.166,0.282,0.264,0.263,0.144,0.089,south,7.7,No
2019/11/18,06:10,0.189,0.165,0.283,0.265,0.263,0.144,0.089,south,6.8,No
2019/11/18,06:20,0.190,0.166,0.281,0.265,0.263,0.145,0.089,south,7.5,No
2019/11/18,06:30,0.190,0.166,0.282,0.264,0.264,0.145,0.089,south,7.4,No
2019/11/18,06:40,0.188,0.166,0.283,0.264,0.263,0.144,0.089,south,7.3,No
2019/11/18,06:50,0.191,0.167,0.283,0.264,0.263,0.144,0.088,south,7.3,No
2019/11/18,07:00,0.189,0.166,0.282,0.266,0.264,0.145,0.088,south,6.8,No
2019/11/18,07:10,0.189,0.166,0.282,0.263,0.263,0.145,0.088,south,6.7,No
2019/11/18,07:20,0.190,0.165,0.283,0.265,0.265,0.145,0.088,south,7.3,No
2019/11/18,07:30,0.189,0.167,0.282,0.264,0.263,0.145,0.089,south,6.8,No
2019/11/18,07:40,0.188,0.166,0.283,0.264,0.264,0.144,0.088,south,7.9,No
2019/11/18,07:50,0.190,0.167,0.281,0.264,0.264,0.143,0.088,south-southeast,7.3,No
2019/11/18,08:00,0.188,0.166,0.281,0.262,0.262,0.143,0.088,south,7.0,No
2019/11/18,08:10,0.189,0.165,0.281,0.263,0.264,0.142,0.089,south-southeast,7.3,No
2019/11/18,08:20,0.189,0.165,0.280,0.265,0.263,0.143,0.088,south-southeast,7.1,No
2019/11/18,08:30,0.190,0.165,0.282,0.264,0.263,0.144,0.089,south,7.1,No
2019/11/18,08:40,0.191,0.166,0.282,0.264,0.263,0.144,0.088,south-southeast,7.3,No
2019/11/18,08:50,0.190,0.165,0.281,0.265,0.262,0.143,0.088,south-southeast,6.6,No
2019/11/18,09:00,0.189,0.165,0.283,0.263,0.265,0.144,0.089,south,6.2,No
2019/11/18,09:10,0.188,0.165,0.281,0.265,0.263,0.144,0.088,south-southwest,8.4,No
2019/11/18,09:20,0.190,0.164,0.282,0.263,0.265,0.144,0.088,south,7.9,No
2019/11/18,09:30,0.189,0.166,0.281,0.264,0.263,0.145,0.088,south,9.2,No
2019/11/18,09:40,0.189,0.166,0.280,0.263,0.264,0.145,0.088,south,8.1,No
2019/11/18,09:50,0.189,0.166,0.282,0.263,0.263,0.145,0.088,south-southwest,9.0,Yes
2019/11/18,10:00,0.188,0.166,0.281,0.265,0.263,0.145,0.089,south-southwest,7.6,No
2019/11/18,10:10,0.189,0.164,0.283,0.265,0.263,0.145,0.089,south-southwest,8.3,No
2019/11/18,10:20,0.190,0.167,0.280,0.267,0.265,0.144,0.087,south-southwest,7.5,No
2019/11/18,10:30,0.189,0.166,0.282,0.264,0.264,0.145,0.088,south-southwest,8.5,No
2019/11/18,10:40,0.190,0.167,0.282,0.266,0.265,0.145,0.088,south-southwest,10.1,Yes
2019/11/18,10:50,0.190,0.166,0.282,0.264,0.263,0.146,0.090,south-southwest,8.8,Yes
2019/11/18,11:00,0.189,0.167,0.283,0.266,0.264,0.146,0.091,south-southwest,9.6,Yes
2019/11/18,11:10,0.191,0.167,0.284,0.265,0.264,0.147,0.090,south,9.2,Yes
2019/11/18,11:20,0.191,0.168,0.285,0.266,0.264,0.147,0.091,south,9.5,Yes
2019/11/18,11:30,0.192,0.169,0.284,0.267,0.267,0.148,0.092,south,7.8,Yes
2019/11/18,11:40,0.191,0.168,0.286,0.266,0.263,0.147,0.091,south,9.0,Yes
2019/11/18,11:50,0.193,0.168,0.284,0.267,0.266,0.149,0.090,south,8.2,No
2019/11/18,12:00,0.190,0.168,0.283,0.265,0.264,0.146,0.091,south-southwest,8.7,No
2019/11/18,12:10,0.191,0.168,0.283,0.268,0.266,0.147,0.091,south,9.6,No
2019/11/18,12:20,0.191,0.166,0.283,0.265,0.261,0.146,0.090,south,8.1,No
2019/11/18,12:30,0.189,0.167,0.283,0.266,0.264,0.145,0.090,south,10.7,No
2019/11/18,12:40,0.190,0.165,0.282,0.264,0.264,0.146,0.089,south,8.9,No
2019/11/18,12:50,0.188,0.166,0.282,0.265,0.263,0.146,0.089,south,9.5,No
2019/11/18,13:00,0.190,0.165,0.283,0.262,0.264,0.145,0.089,south,8.7,No
2019/11/18,13:10,0.189,0.167,0.281,0.264,0.262,0.145,0.088,south,9.2,No
2019/11/18,13:20,0.188,0.166,0.282,0.264,0.265,0.145,0.089,south,8.7,No
2019/11/18,13:30,0.189,0.166,0.283,0.264,0.261,0.145,0.088,south,9.5,No
2019/11/18,13:40,0.190,0.166,0.280,0.263,0.265,0.145,0.089,south,7.6,No
2019/11/18,13:50,0.189,0.167,0.282,0.264,0.261,0.145,0.089,south-southeast,8.1,No
2019/11/18,14:00,0.188,0.165,0.282,0.265,0.260,0.145,0.089,south,9.5,No
2019/11/18,14:10,0.190,0.166,0.281,0.263,0.265,0.143,0.088,south,10.0,No
2019/11/18,14:20,0.189,0.165,0.281,0.265,0.262,0.145,0.088,south,9.5,No
2019/11/18,14:30,0.189,0.166,0.282,0.263,0.264,0.144,0.089,south,9.3,No
2019/11/18,14:40,0.189,0.166,0.281,0.265,0.262,0.144,0.089,south,8.3,No
2019/11/18,14:50,0.191,0.166,0.282,0.264,0.265,0.145,0.088,south,7.8,No
2019/11/18,15:00,0.189,0.166,0.283,0.264,0.262,0.145,0.088,south,8.4,No
2019/11/18,15:10,0.190,0.166,0.282,0.263,0.263,0.145,0.088,south,8.1,No
2019/11/18,15:20,0.188,0.166,0.282,0.265,0.263,0.145,0.088,south,8.6,No
2019/11/18,15:30,0.189,0.167,0.281,0.263,0.265,0.145,0.089,south,9.0,No
2019/11/18,15:40,0.189,0.165,0.281,0.265,0.263,0.145,0.089,south,8.2,No
2019/11/18,15:50,0.190,0.165,0.281,0.264,0.264,0.145,0.089,south-southwest,7.0,No
2019/11/18,16:00,0.188,0.166,0.282,0.266,0.264,0.145,0.088,south,5.9,No
2019/11/18,16:10,0.190,0.166,0.282,0.264,0.264,0.145,0.089,south,7.4,No
2019/11/18,16:20,0.189,0.165,0.282,0.266,0.262,0.144,0.089,south,8.2,No
2019/11/18,16:30,0.190,0.167,0.281,0.263,0.265,0.144,0.088,south,9.8,No
2019/11/18,16:40,0.190,0.166,0.282,0.266,0.261,0.145,0.088,south,9.0,No
2019/11/18,16:50,0.191,0.166,0.283,0.265,0.266,0.144,0.089,south-southwest,8.2,No
2019/11/18,17:00,0.189,0.166,0.282,0.264,0.263,0.144,0.089,south-southwest,7.3,No
2019/11/18,17:10,0.190,0.167,0.283,0.264,0.265,0.144,0.088,south-southwest,7.5,No
2019/11/18,17:20,0.188,0.166,0.282,0.265,0.264,0.145,0.089,south-southwest,7.1,No
2019/11/18,17:30,0.190,0.167,0.284,0.265,0.265,0.144,0.087,south-southwest,8.1,No
2019/11/18,17:40,0.189,0.167,0.282,0.265,0.264,0.144,0.089,south-southwest,9.2,No
2019/11/18,17:50,0.190,0.166,0.282,0.265,0.263,0.145,0.088,south-southwest,8.1,No
2019/11/18,18:00,0.189,0.167,0.283,0.264,0.264,0.145,0.088,south-southwest,9.0,No
2019/11/18,18:10,0.189,0.167,0.281,0.267,0.263,0.145,0.088,south-southwest,10.0,No
2019/11/18,18:20,0.190,0.166,0.283,0.265,0.265,0.145,0.088,south-southwest,9.8,No
2019/11/18,18:30,0.190,0.167,0.281,0.264,0.263,0.145,0.089,southwest,10.1,No
2019/11/18,18:40,0.189,0.166,0.284,0.266,0.265,0.145,0.088,southwest,10.4,No
2019/11/18,18:50,0.188,0.166,0.282,0.263,0.263,0.144,0.088,southwest,9.5,No
2019/11/18,19:00,0.190,0.165,0.283,0.266,0.265,0.145,0.088,southwest,8.8,No
2019/11/18,19:10,0.189,0.167,0.281,0.263,0.263,0.144,0.089,south-southwest,8.6,No
2019/11/18,19:20,0.190,0.166,0.283,0.266,0.263,0.145,0.089,south-southwest,8.7,No
2019/11/18,19:30,0.188,0.166,0.282,0.264,0.263,0.144,0.089,southwest,7.3,No
2019/11/18,19:40,0.191,0.166,0.282,0.266,0.265,0.145,0.088,southwest,5.6,No
2019/11/18,19:50,0.189,0.167,0.283,0.264,0.264,0.145,0.089,southwest,5.9,No
2019/11/18,20:00,0.190,0.167,0.281,0.266,0.264,0.145,0.089,south-southwest,2.9,No
2019/11/18,20:10,0.189,0.165,0.283,0.263,0.264,0.145,0.088,south-southwest,3.3,No
2019/11/18,20:20,0.189,0.166,0.282,0.265,0.263,0.145,0.088,southwest,4.4,No
2019/11/18,20:30,0.190,0.166,0.284,0.265,0.263,0.144,0.088,west-southwest,6.5,No
2019/11/18,20:40,0.189,0.166,0.282,0.265,0.263,0.145,0.089,west-southwest,10.9,No
2019/11/18,20:50,0.189,0.166,0.284,0.264,0.263,0.145,0.088,southwest,9.7,No
2019/11/18,21:00,0.189,0.165,0.282,0.265,0.263,0.145,0.089,west-southwest,9.3,No
2019/11/18,21:10,0.189,0.167,0.283,0.265,0.262,0.145,0.089,west-southwest,9.3,No
2019/11/18,21:20,0.189,0.166,0.282,0.264,0.264,0.146,0.088,southwest,11.2,No
2019/11/18,21:30,0.190,0.166,0.282,0.265,0.264,0.144,0.088,west-southwest,7.0,No
2019/11/18,21:40,0.189,0.165,0.282,0.265,0.263,0.145,0.089,west-southwest,5.4,No
2019/11/18,21:50,0.190,0.167,0.283,0.264,0.263,0.145,0.088,southwest,4.0,No
2019/11/18,22:00,0.189,0.167,0.282,0.264,0.263,0.145,0.089,west-southwest,7.7,No
2019/11/18,22:10,0.191,0.165,0.283,0.264,0.263,0.145,0.088,west-southwest,8.6,No
2019/11/18,22:20,0.190,0.166,0.282,0.265,0.263,0.145,0.088,west-southwest,5.1,No
2019/11/18,22:30,0.190,0.166,0.284,0.264,0.264,0.144,0.088,west-southwest,3.8,No
2019/11/18,22:40,0.189,0.168,0.283,0.263,0.263,0.146,0.089,west-southwest,4.4,No
2019/11/18,22:50,0.189,0.165,0.282,0.264,0.264,0.145,0.088,west-southwest,5.1,No
2019/11/18,23:00,0.190,0.167,0.282,0.264,0.265,0.145,0.088,west-southwest,3.9,No
2019/11/18,23:10,0.189,0.167,0.284,0.265,0.263,0.145,0.089,west-northwest,1.1,No
2019/11/18,23:20,0.189,0.167,0.281,0.265,0.263,0.144,0.089,west-southwest,1.3,No
2019/11/18,23:30,0.190,0.167,0.284,0.265,0.263,0.144,0.089,west-northwest,3.2,No
2019/11/18,23:40,0.190,0.167,0.283,0.264,0.264,0.145,0.089,west-northwest,6.1,Yes
2019/11/18,23:50,0.189,0.166,0.285,0.265,0.263,0.145,0.090,west-northwest,5.5,Yes
